Wind_Speed
23 20 19 18 19 19 16 14 11 7 5 7 9 8 6 8 11 13 14 13 16 18 18 19 15 14 16 18 21 22 22 22 20 15 12 12 14 14 13 12 17 20 18 16 14 11 11 10 8 7 6 5 6 7 8 9 10 10 9 9 8 7 7 8 8 8 9 9 10 11 12 12 11 11 10 10 10 10 11 11 11 10 10 11 11 11
23 22 22 20 17 17 14 12 10 8 7 6 8 9 8 10 11 11 13 13 16 17 17 19 16 14 16 18 23 25 24 24 22 16 14 14 14 14 13 12 15 18 18 16 14 12 11 10 8 7 6 5 5 6 7 8 10 11 10 10 9 8 8 8 9 9 9 10 10 10 11 11 11 10 11 10 10 10 10 11 11 10 10 10 11 11
24 25 26 19 15 15 13 13 12 10 9 7 8 10 10 12 12 11 13 14 15 16 16 17 16 17 18 16 20 26 26 25 22 17 15 14 14 14 13 12 13 16 17 16 14 12 11 11 9 8 7 5 5 6 6 7 9 10 11 11 10 9 9 9 9 9 10 10 11 11 11 12 12 12 12 11 10 10 10 10 10 10 10 11 11 12
24 25 24 19 15 15 15 15 15 13 12 12 12 12 12 13 13 12 13 15 15 15 16 16 15 17 19 17 19 26 27 26 23 19 17 16 14 11 10 10 11 12 13 14 13 12 12 12 11 9 7 6 5 5 5 6 7 9 11 11 10 10 10 10 10 10 10 10 11 11 12 13 13 12 12 11 10 10 10 10 10 9 10 11 11 11
24 19 18 19 18 17 17 17 17 16 16 16 16 15 13 12 13 12 11 14 15 14 15 16 14 15 20 20 21 25 28 28 26 22 21 19 16 12 10 9 8 7 7 9 11 12 13 12 11 10 8 6 6 5 5 5 6 8 10 11 11 10 11 11 11 10 10 10 10 10 10 11 11 11 11 10 10 10 10 10 10 10 11 12 11 10
23 16 12 16 19 19 20 20 19 19 18 18 18 15 11 8 11 13 12 14 14 13 15 17 12 12 22 24 22 24 29 31 29 25 23 21 19 18 15 13 11 8 7 7 8 11 12 12 11 11 10 8 6 5 5 6 7 8 10 11 11 11 11 10 10 10 10 10 9 9 8 8 9 10 11 11 10 10 10 10 10 11 12 12 10 10
23 19 14 15 18 19 20 22 22 20 19 20 19 14 9 9 12 15 15 14 15 12 13 18 14 8 18 28 26 26 30 32 32 28 25 24 23 22 19 16 14 12 9 8 8 11 12 12 13 12 11 9 7 6 7 7 8 9 10 11 11 11 10 10 9 9 9 10 9 9 9 8 9 10 11 11 10 10 9 10 11 12 11 11 10 9
21 23 20 16 16 17 20 24 24 22 21 20 19 14 11 11 13 15 16 15 16 12 8 18 20 9 13 26 28 30 33 34 36 33 28 27 26 25 22 20 18 14 11 9 9 11 12 12 12 11 10 10 9 9 8 8 8 9 10 11 12 11 10 10 10 9 9 9 9 10 10 10 10 11 11 11 10 10 9 10 11 11 11 10 10 10
16 21 22 19 17 17 19 23 24 24 24 23 20 13 11 11 12 16 17 17 17 13 8 16 22 11 9 20 26 31 37 38 39 37 31 29 27 27 26 23 21 17 13 11 10 10 11 11 11 11 11 10 10 10 10 9 9 9 10 11 12 12 11 11 11 10 10 10 11 11 10 10 11 12 12 12 11 10 9 10 11 11 11 11 10 10
13 15 17 19 19 17 17 18 20 22 24 25 21 15 12 10 12 16 18 18 15 10 8 13 21 13 7 15 24 32 40 40 39 37 33 30 28 27 28 26 23 21 17 13 11 10 8 8 10 11 11 11 11 12 11 11 10 10 10 11 12 12 12 12 11 11 11 11 12 12 11 10 10 11 12 13 12 12 11 10 10 11 11 11 10 9
14 14 15 19 19 17 13 12 17 23 24 21 19 16 10 9 12 14 13 12 9 7 9 11 17 16 7 11 23 33 39 38 36 37 35 33 31 28 28 28 26 24 20 16 14 11 7 7 9 11 13 13 12 13 13 12 12 11 11 11 11 12 13 13 12 12 13 13 12 12 11 10 10 10 12 13 13 13 12 12 11 11 12 11 10 9
13 15 17 19 18 15 13 12 17 24 24 20 19 15 8 8 9 8 6 5 4 4 8 8 11 16 12 12 17 25 32 33 34 36 36 34 33 30 29 29 27 25 22 18 16 15 12 11 11 13 14 14 14 15 15 13 12 12 11 11 11 12 13 14 14 13 14 13 12 12 11 11 10 10 12 13 13 13 14 14 13 13 13 13 13 12
10 14 17 18 17 15 15 15 17 20 21 23 22 16 8 5 3 2 2 3 5 6 7 5 5 13 17 16 14 16 24 31 34 34 34 34 32 30 30 30 28 26 24 21 19 17 16 15 13 13 16 16 16 16 15 14 13 12 12 12 12 12 13 13 14 14 14 14 13 12 12 12 11 12 13 13 14 14 15 15 15 14 14 14 14 13
6 9 15 16 16 16 16 17 21 21 22 25 23 17 10 5 3 1 1 1 5 9 9 6 4 9 16 15 13 16 18 25 32 33 33 34 31 29 29 29 29 28 25 23 21 19 18 16 13 13 16 17 17 16 15 15 14 13 12 12 12 13 13 13 14 14 14 15 15 14 14 14 13 13 13 14 14 14 15 15 15 15 14 14 14 13
4 6 12 15 14 15 15 15 21 22 23 24 21 17 14 10 5 3 5 4 1 2 6 8 6 7 11 7 7 14 16 19 26 31 34 35 33 31 30 30 31 30 28 25 23 20 19 17 15 14 15 17 16 16 16 15 14 14 13 12 12 13 13 13 14 15 15 15 15 16 16 15 15 15 15 15 15 15 14 14 14 14 13 13 13 12
5 5 7 11 11 13 14 12 16 21 23 22 20 18 16 16 10 3 4 6 5 5 6 9 9 10 11 7 5 9 14 18 22 28 34 37 36 35 34 33 32 31 30 28 25 23 20 18 17 15 15 15 16 16 16 16 15 14 13 12 12 13 13 14 14 15 16 16 16 16 16 16 16 16 15 16 16 16 15 15 14 13 13 13 13 12
6 7 3 3 7 14 16 14 17 20 21 20 19 19 15 15 13 4 1 3 5 3 4 8 11 12 11 10 10 9 11 15 20 26 32 35 36 37 37 36 35 33 32 30 27 24 21 20 19 17 15 14 15 17 17 16 15 15 14 13 13 13 14 15 15 16 16 17 17 17 17 16 16 16 15 15 15 15 15 15 14 14 13 13 13 12
6 8 3 6 4 12 14 14 19 20 18 16 16 18 14 11 13 8 1 1 2 1 3 9 13 14 11 8 10 12 12 14 18 22 29 34 37 39 38 38 37 35 33 31 28 25 23 22 21 18 16 15 14 15 16 16 15 15 15 15 14 14 14 14 15 16 16 17 17 17 17 17 16 16 15 15 15 15 15 15 15 14 14 14 13 13
6 6 3 10 4 12 16 15 18 19 18 14 11 15 13 8 9 11 5 2 2 0 2 6 10 14 14 11 9 10 12 13 16 20 25 31 36 38 40 40 38 37 35 33 31 28 25 23 22 20 18 15 14 15 16 16 16 17 17 16 15 14 15 15 16 17 17 17 17 17 18 17 17 16 16 16 16 16 16 15 15 15 14 14 14 14
6 6 3 9 6 10 17 15 15 15 16 16 11 13 15 10 9 13 11 4 3 2 2 2 4 7 9 8 6 7 10 13 16 19 22 25 30 35 39 40 39 38 37 36 33 30 26 24 23 21 18 16 15 15 16 17 17 18 18 17 16 16 17 18 18 18 17 17 17 18 18 18 18 17 17 17 17 17 17 16 16 16 16 15 15 15
4 5 4 6 3 10 17 14 13 14 16 20 16 13 18 17 11 11 12 7 3 2 2 2 3 5 4 4 5 6 8 12 14 16 18 20 25 30 35 38 39 39 38 37 35 31 27 25 24 22 20 17 15 16 18 17 17 18 18 18 17 17 18 19 18 18 18 17 17 17 18 18 18 18 17 17 17 17 17 17 17 17 17 17 16 16
2 2 1 4 2 13 18 14 12 15 19 21 18 15 17 16 11 8 7 9 7 4 2 3 3 6 5 5 6 6 7 11 13 14 15 17 20 25 30 34 38 40 39 38 36 33 29 27 25 23 22 20 19 19 19 18 18 19 19 18 18 18 18 18 18 18 17 18 18 17 17 18 18 18 18 17 17 16 17 17 17 17 17 17 16 15
3 4 2 4 3 10 16 15 13 16 22 24 22 22 19 13 12 9 6 8 11 8 4 3 2 5 5 5 6 6 6 9 12 14 15 15 18 21 25 30 36 40 40 39 37 35 32 30 27 25 24 23 22 21 20 19 20 20 20 19 19 19 18 18 19 18 18 18 18 18 18 18 18 18 18 18 17 17 17 16 17 17 16 15 15 15
5 2 3 4 1 9 13 14 14 15 19 21 20 24 24 16 16 16 12 9 12 11 6 2 2 5 4 3 5 5 6 7 11 13 15 16 18 20 23 27 32 37 40 40 39 37 36 34 31 27 25 24 23 23 22 21 22 22 21 21 20 19 19 18 19 19 19 19 19 19 19 18 18 18 18 17 17 17 17 17 17 16 15 15 15 15
5 3 4 3 2 7 9 9 9 10 15 17 17 20 21 17 15 16 14 10 10 11 7 3 3 5 5 5 6 6 6 7 9 12 15 17 19 20 22 25 30 35 40 41 41 39 38 37 34 30 27 25 25 24 23 22 22 24 23 22 22 21 20 19 19 20 20 20 20 20 20 20 19 19 18 18 17 17 18 18 17 17 16 15 15 16
5 3 3 1 4 4 2 3 3 4 9 14 15 16 16 15 14 14 12 10 9 8 8 7 7 9 7 8 8 7 6 6 7 10 13 16 18 20 21 23 27 33 39 42 42 41 39 38 37 33 29 27 26 24 23 21 21 23 24 23 23 23 23 21 20 20 20 20 20 21 21 21 20 20 19 18 18 18 18 18 17 17 16 15 15 16
7 10 8 7 9 8 5 5 3 1 4 7 9 12 13 13 13 12 11 11 10 7 8 10 12 14 12 10 10 7 5 4 6 8 11 14 17 18 21 23 25 30 37 42 42 41 40 39 38 35 31 29 27 26 24 22 21 23 24 24 24 24 24 23 22 21 21 20 20 21 21 21 20 20 19 19 19 19 19 18 17 16 16 15 14 14
6 11 11 9 9 9 7 8 7 4 2 3 4 8 10 10 12 14 12 11 9 7 7 8 10 14 14 11 8 5 3 3 5 7 9 11 13 14 17 21 24 28 35 40 42 42 41 40 39 36 33 31 29 27 26 24 23 22 24 25 24 23 23 23 23 23 22 22 21 21 21 21 20 20 20 19 20 20 20 19 18 17 16 15 14 13
8 7 8 6 4 6 6 5 7 6 5 3 1 4 7 9 12 15 14 11 9 9 10 9 10 11 10 8 6 5 4 4 5 6 8 9 9 9 12 16 19 24 32 39 41 42 41 41 39 37 35 34 30 28 27 27 26 24 24 24 24 23 23 24 24 24 24 23 23 22 21 21 21 21 21 21 21 21 21 20 19 19 18 16 15 14
9 9 7 7 4 3 4 2 3 6 6 4 3 2 3 6 8 12 14 12 11 11 11 11 11 8 5 5 6 5 5 5 6 7 7 6 7 7 9 12 15 19 26 34 40 41 41 41 41 40 38 37 33 30 31 30 27 26 25 24 24 25 25 25 25 25 25 25 23 22 22 22 22 23 23 23 22 22 22 21 20 19 18 17 16 16
6 10 10 9 10 5 2 1 2 3 5 5 4 3 1 2 5 7 9 11 12 12 12 11 9 5 4 6 6 6 6 6 7 7 6 6 7 7 8 9 10 13 17 24 32 39 42 43 43 41 40 38 36 34 32 28 25 26 27 26 25 24 25 25 26 26 26 26 24 24 24 24 24 24 25 25 24 23 22 22 21 20 18 17 17 17
4 11 14 14 16 14 7 1 1 1 5 6 4 3 2 1 1 2 3 5 8 11 11 9 6 4 8 8 7 7 7 7 7 7 7 7 7 7 8 8 8 10 12 14 20 29 36 41 41 40 40 40 38 35 30 25 23 25 27 27 24 23 24 25 26 26 26 26 26 26 25 24 24 24 25 25 25 24 24 23 22 21 20 19 18 17
5 9 13 16 18 20 15 7 3 4 6 6 5 6 7 5 5 4 3 2 3 7 8 6 5 7 9 9 8 7 7 7 8 8 7 7 6 7 7 7 8 9 9 10 12 17 25 31 34 34 35 35 35 34 30 26 24 25 26 27 25 23 24 25 26 27 27 26 27 27 26 25 25 25 25 25 25 25 24 24 23 22 21 20 19 19
3 6 8 11 14 19 21 15 7 4 3 3 5 6 7 6 6 4 4 4 3 2 4 4 5 8 8 8 8 8 7 6 6 7 7 6 7 7 7 7 8 8 9 12 13 16 21 26 29 31 31 31 32 32 29 26 26 26 27 28 28 26 26 27 26 27 27 27 27 27 27 27 27 26 25 25 25 25 25 24 24 23 22 22 21 20
2 5 7 7 7 12 19 17 8 4 4 4 5 7 7 6 5 5 4 5 5 5 6 6 6 7 6 5 5 5 3 2 3 4 5 5 5 6 7 7 5 5 10 13 14 16 18 22 25 28 30 31 32 31 29 28 29 29 28 29 31 32 32 30 27 25 26 27 27 28 29 28 28 28 27 25 25 25 25 25 25 23 22 22 22 21
3 5 5 6 6 6 11 13 7 3 6 7 7 7 7 7 6 4 4 3 2 4 7 6 6 6 4 2 1 2 2 3 2 3 3 4 5 6 7 5 3 5 9 10 10 13 17 21 24 26 28 31 32 31 31 31 30 30 29 29 31 32 33 31 28 25 25 27 27 27 28 29 29 29 27 26 26 26 25 25 24 23 22 22 22 21
5 5 4 6 6 5 7 10 7 4 6 10 9 8 8 7 5 4 5 4 4 3 3 5 5 4 3 2 1 1 2 4 4 4 4 4 5 6 6 3 3 6 9 6 6 10 14 18 21 22 24 27 28 29 29 28 26 27 29 29 29 30 32 33 31 28 28 28 27 26 27 28 29 29 28 27 27 25 25 24 23 23 23 22 22 21
7 6 6 6 6 6 7 7 4 2 5 10 12 10 9 8 5 4 6 6 6 5 4 4 3 2 3 3 1 1 2 2 4 5 4 4 5 6 7 5 4 8 9 5 5 8 10 10 14 17 19 21 22 23 24 23 22 24 29 32 32 33 33 32 33 33 31 27 25 24 25 26 26 28 31 30 26 24 25 25 24 24 25 24 23 22
8 7 6 6 6 8 9 7 5 4 5 9 12 10 8 6 5 5 6 7 6 6 5 3 1 2 2 1 2 3 2 2 4 5 5 7 7 6 6 4 5 9 9 6 6 8 6 4 7 12 15 16 17 18 20 19 19 21 25 30 35 37 34 30 31 32 27 22 22 22 23 24 25 26 28 27 24 24 26 27 27 27 27 26 25 25
10 8 8 8 8 9 9 6 5 5 6 8 11 10 8 8 6 4 3 4 4 4 5 5 5 6 5 4 4 4 4 5 5 6 8 9 9 7 6 4 3 7 8 7 7 7 5 3 5 8 10 12 15 17 17 16 16 16 18 22 29 34 31 27 26 25 20 17 20 21 22 23 24 25 26 26 25 25 26 27 28 29 28 26 26 25
10 10 9 8 8 10 10 7 5 5 5 8 11 11 10 9 7 4 3 3 4 4 5 6 8 8 7 7 7 7 7 7 7 8 9 10 10 8 6 4 3 4 6 7 7 7 5 4 5 6 6 8 11 14 14 13 13 13 13 16 22 25 24 22 20 19 18 19 22 24 25 25 24 25 26 25 23 23 22 24 27 28 27 26 26 26
8 9 10 10 8 9 10 8 6 6 7 8 10 12 12 10 7 6 6 6 6 5 5 7 9 9 8 9 9 9 10 10 10 10 11 11 12 11 7 5 3 4 5 7 8 7 5 4 5 6 7 7 9 11 13 12 11 11 11 13 15 17 19 20 19 19 22 25 27 28 29 28 26 24 22 20 20 21 22 23 25 25 25 26 26 26
7 6 8 11 10 9 11 9 5 5 7 8 10 11 11 9 8 8 8 7 5 6 7 8 9 10 10 9 10 10 11 12 12 12 12 12 13 12 8 5 3 4 5 7 8 8 6 5 5 6 7 8 9 9 11 12 11 11 12 13 12 12 16 19 19 20 22 25 26 26 26 26 26 25 24 23 23 23 23 23 23 24 24 25 24 23
7 6 6 9 10 9 11 11 7 5 6 8 10 10 9 9 8 7 8 7 5 6 8 10 11 11 10 9 9 9 10 10 10 10 10 11 11 9 7 4 3 4 7 8 9 9 8 7 8 8 9 10 10 9 9 9 10 11 12 13 13 13 15 17 18 20 22 23 24 24 25 26 27 27 27 27 26 24 23 23 24 24 24 24 22 22
6 6 6 7 9 10 9 9 8 7 6 7 9 9 8 8 7 7 7 7 6 6 8 10 12 12 10 8 7 8 7 6 5 6 7 7 6 5 4 2 3 5 7 8 9 9 9 8 9 10 10 11 11 11 10 10 10 11 11 12 12 12 13 15 17 18 20 22 23 24 25 26 27 26 26 26 25 23 22 22 22 21 21 22 22 22
6 7 7 6 7 9 9 8 8 8 8 9 9 9 8 7 6 7 8 8 8 8 9 10 11 11 9 7 7 7 5 4 4 5 5 3 2 2 3 4 5 5 6 7 7 7 8 8 8 8 9 9 9 10 10 9 10 11 12 14 14 11 11 14 16 17 19 21 22 23 23 23 24 25 25 24 23 21 19 18 18 17 17 18 18 19
6 7 7 7 7 7 8 8 8 8 9 9 9 8 8 7 6 7 8 8 9 10 10 9 9 9 9 9 9 8 6 5 6 6 4 2 2 3 5 7 7 7 7 7 7 7 7 7 7 6 6 6 6 6 6 6 6 7 9 11 12 11 11 13 15 16 19 21 22 22 20 19 19 19 17 16 16 16 15 15 16 16 15 14 13 13
5 5 6 7 8 8 6 7 8 8 8 8 8 7 6 5 6 6 6 7 9 9 9 8 9 10 11 11 10 9 7 7 7 7 5 4 3 5 7 9 10 10 9 8 8 7 7 7 6 6 5 4 3 3 3 3 3 4 6 7 8 8 10 12 13 13 15 16 17 15 14 12 12 13 12 11 12 12 12 12 13 13 12 11 10 9
2 3 4 3 4 5 5 6 7 8 7 7 7 6 5 5 5 5 5 5 6 7 7 8 10 12 12 12 10 9 8 7 8 7 6 6 6 8 9 11 11 11 11 10 9 9 8 8 7 6 6 5 4 4 5 5 5 6 6 7 7 8 9 10 10 11 12 13 13 12 10 10 10 10 10 10 11 11 10 11 11 11 10 10 9 8
3 3 2 2 1 1 3 4 6 7 6 7 7 6 5 5 4 4 5 5 5 5 6 7 9 11 13 13 12 10 8 8 9 9 8 8 9 9 10 11 11 11 11 10 9 9 8 8 8 7 7 7 6 6 6 7 7 7 7 7 8 9 9 9 9 10 11 11 12 11 11 11 10 10 10 11 12 11 11 11 12 12 11 11 10 9
3 3 3 3 2 1 1 3 5 6 6 7 7 6 6 6 5 4 5 6 6 5 5 6 7 9 12 13 13 12 9 7 7 8 8 9 9 10 11 12 12 11 11 10 9 8 8 8 8 8 8 8 8 7 7 7 8 8 8 8 8 8 8 8 9 9 10 10 10 11 11 10 11 11 12 12 13 13 13 13 13 13 12 12 11 11
Wind_Direction
195 197 199 200 199 204 202 187 192 214 230 230 227 239 255 241 226 209 205 200 198 200 196 197 204 214 219 210 199 192 187 190 198 202 207 206 200 202 208 195 174 164 157 154 152 151 148 145 144 133 118 118 125 125 131 141 145 149 153 159 170 173 165 154 151 152 150 147 149 153 156 158 159 159 157 157 159 157 154 152 151 150 151 152 147 143
198 204 204 201 202 209 211 198 201 220 223 226 234 248 261 255 245 225 213 207 208 208 198 198 204 210 222 219 206 200 194 194 197 199 204 204 202 206 211 198 175 163 159 159 156 157 160 157 157 144 120 122 134 131 134 144 148 150 152 156 163 168 165 159 155 156 157 154 154 157 160 162 164 164 162 162 164 161 158 155 154 155 156 156 152 145
203 209 204 200 205 211 215 213 216 223 226 231 239 248 256 253 248 234 217 208 211 215 203 200 205 207 215 224 218 210 202 198 199 200 202 200 203 209 209 201 187 173 163 160 161 162 163 165 165 152 137 142 149 142 142 148 152 153 153 154 159 164 167 164 161 162 164 165 163 162 165 168 172 173 170 169 166 162 159 159 159 159 159 158 153 146
206 212 208 205 209 211 214 218 222 226 229 235 242 249 257 254 246 233 214 205 210 219 212 206 207 210 212 214 218 217 210 203 200 200 200 198 202 212 208 202 204 192 171 163 166 168 169 173 172 161 154 159 162 151 145 146 152 156 154 154 158 164 167 166 168 171 173 174 173 169 169 172 176 176 172 171 167 161 161 162 161 162 163 162 155 146
209 211 212 212 214 216 218 221 225 230 232 234 240 249 261 261 248 236 215 205 210 216 218 213 210 217 217 212 212 216 214 207 203 200 199 197 198 205 208 205 213 215 192 175 173 176 177 178 175 169 168 172 171 165 158 153 155 161 160 157 158 162 167 169 172 178 181 181 181 177 174 173 174 172 169 169 167 163 164 164 162 162 164 163 158 149
215 209 210 213 214 218 222 224 226 230 236 239 241 247 259 254 239 237 225 205 204 213 217 211 209 222 221 215 210 214 217 212 206 204 201 199 200 204 210 211 213 219 217 205 191 187 181 180 182 179 177 178 176 180 176 165 163 168 167 162 159 161 167 170 172 176 180 182 181 176 175 173 170 169 167 167 168 167 165 162 159 160 162 161 156 150
219 211 211 213 212 216 223 226 225 229 237 242 243 244 248 240 231 236 232 210 202 211 214 209 210 224 223 217 208 209 218 216 211 209 203 201 205 208 212 215 216 218 216 213 211 203 188 184 188 185 182 181 182 194 189 173 168 171 171 167 162 162 166 167 168 172 175 180 178 171 170 170 171 175 174 173 173 169 163 158 156 158 160 157 154 153
223 214 214 219 219 220 223 223 223 228 233 239 242 241 249 255 245 239 234 222 215 214 206 207 213 224 230 222 211 207 215 216 214 215 208 204 206 211 215 217 219 222 220 213 208 205 194 186 186 186 187 189 191 196 191 178 171 172 175 173 169 167 167 166 166 168 169 173 176 172 169 170 174 181 182 179 176 170 162 157 157 161 163 158 156 157
228 221 222 229 232 230 227 222 223 227 231 234 235 243 265 267 248 237 231 228 223 216 204 206 212 225 250 232 216 209 215 216 215 216 213 209 206 209 215 219 220 223 226 218 204 200 193 182 179 183 188 194 199 197 189 184 178 176 179 179 176 172 169 168 167 167 166 168 173 175 177 177 180 184 185 183 178 173 169 163 162 166 170 168 164 156
236 229 229 233 236 237 230 224 229 231 228 231 238 254 269 252 228 224 220 220 216 213 222 213 210 218 263 244 219 210 214 217 217 217 216 215 210 208 213 218 220 223 226 219 202 192 187 175 174 181 187 193 201 200 192 188 184 182 182 181 180 176 174 173 171 170 169 170 175 179 183 186 186 187 188 186 180 176 175 173 170 169 171 174 167 156
248 238 233 231 230 230 225 230 240 229 218 227 246 255 244 207 203 209 209 211 211 224 239 229 217 215 244 258 226 215 218 219 218 217 217 217 214 210 211 215 219 221 223 218 201 190 190 187 182 188 191 192 200 203 196 191 188 187 185 183 181 179 179 178 176 175 174 176 180 184 187 187 187 188 188 186 182 180 179 179 179 174 172 173 169 167
260 248 238 230 225 225 233 241 232 219 216 231 248 243 210 161 174 201 213 210 224 248 237 242 233 216 224 257 240 227 226 224 221 220 219 218 215 212 211 213 216 219 221 217 204 194 200 206 199 195 195 194 200 203 198 193 192 191 188 186 184 181 181 181 179 178 176 177 181 184 185 181 181 183 183 183 183 184 183 183 185 181 177 176 175 176
268 250 236 228 228 233 243 232 202 200 217 230 233 222 187 117 124 215 253 213 230 241 231 240 220 209 232 259 258 241 232 226 225 224 222 222 220 216 213 212 214 216 219 217 207 199 203 209 204 200 200 200 201 202 201 198 196 194 192 190 187 182 180 181 181 178 175 176 177 178 178 174 172 174 176 178 180 185 187 187 188 186 182 180 178 178
287 247 230 228 232 236 245 222 189 191 210 216 219 213 183 123 88 219 252 278 253 242 236 233 193 217 248 265 255 240 233 227 227 225 224 225 224 223 220 216 216 216 217 218 211 204 204 207 206 203 204 205 204 202 203 202 201 199 196 194 191 184 180 180 181 178 176 176 175 175 175 170 167 169 172 173 175 181 186 187 189 188 184 182 180 180
281 252 225 226 233 233 242 223 197 208 217 213 221 228 217 207 194 194 210 208 161 182 203 199 189 227 244 256 245 231 226 224 223 222 223 224 223 225 225 221 219 219 219 219 215 208 204 205 208 204 204 208 208 207 205 204 204 203 200 198 196 190 183 179 180 179 178 178 175 176 178 173 168 170 173 174 175 178 183 185 188 188 185 183 183 185
278 281 207 216 235 231 233 221 206 218 214 205 214 225 229 230 221 190 210 203 147 120 163 185 205 239 240 244 257 228 218 219 218 217 219 221 221 222 224 224 223 223 222 221 218 211 204 204 208 205 203 207 210 211 209 207 206 206 204 201 198 196 190 183 180 180 180 179 176 177 181 179 176 176 177 178 178 180 183 185 187 189 189 188 189 192
290 287 209 204 245 229 226 217 208 210 202 198 212 220 225 228 219 196 98 175 150 145 202 207 228 250 252 256 256 236 220 216 214 212 213 217 220 220 222 224 225 226 225 223 221 215 206 203 205 205 204 207 210 212 212 210 208 208 208 205 202 201 198 189 182 181 183 181 178 178 182 184 183 183 183 182 182 184 187 188 190 193 194 195 197 198
289 276 287 11 296 217 209 203 199 206 214 217 219 215 207 205 215 221 264 153 145 123 236 229 242 252 253 255 246 235 225 215 212 211 209 211 216 220 222 223 224 226 226 225 223 219 210 206 205 204 205 209 211 213 215 214 212 211 211 209 206 204 202 198 190 186 184 183 182 181 184 187 187 188 188 187 187 188 189 190 193 196 199 202 203 204
296 277 317 21 10 195 187 194 200 208 222 224 215 213 204 186 198 201 200 216 189 192 268 240 249 253 249 248 243 238 236 223 214 210 209 209 212 217 221 222 223 224 225 226 225 222 215 209 206 204 205 210 212 213 216 218 215 214 213 211 209 206 202 202 200 194 188 185 185 185 187 189 190 191 192 191 191 191 190 192 195 197 201 205 205 204
279 263 285 26 30 185 179 185 196 199 205 205 207 213 207 201 199 197 207 217 167 186 270 266 266 265 259 256 244 242 243 232 221 215 215 215 214 215 218 220 222 222 222 223 223 223 218 211 206 203 205 211 215 215 216 218 217 215 214 212 211 209 203 201 202 200 194 189 187 187 189 191 193 194 196 195 194 193 193 195 197 197 201 202 201 199
254 252 286 10 24 183 174 172 185 193 194 194 198 201 198 203 206 200 217 230 189 188 179 158 274 281 280 264 238 235 232 227 228 228 226 224 220 219 219 220 221 220 221 221 221 222 220 215 208 203 205 212 217 216 215 218 218 214 214 212 211 212 208 203 202 202 200 195 193 191 191 193 194 195 198 200 199 197 197 199 199 200 202 201 199 198
174 150 298 332 253 185 176 171 184 206 210 202 200 200 197 205 208 190 206 224 218 229 200 171 270 284 276 266 255 251 233 218 221 228 231 229 226 223 221 221 221 220 220 220 219 220 220 218 212 205 205 209 212 211 210 215 218 213 212 213 212 214 212 207 205 205 204 202 199 197 195 196 197 197 200 202 202 202 203 204 204 206 207 205 203 202
178 111 109 289 252 176 183 195 206 218 220 217 215 214 212 226 237 221 210 217 214 221 230 208 258 291 288 269 260 264 248 223 216 219 222 221 222 223 222 221 222 221 219 219 219 219 220 220 216 208 206 207 208 206 206 211 216 214 213 214 214 214 213 210 208 207 207 206 204 203 202 201 201 202 202 203 202 203 205 208 209 211 213 211 210 209
226 34 7 290 121 129 158 188 207 210 206 208 212 210 215 237 249 238 236 236 217 210 211 179 251 289 308 289 268 276 267 242 227 222 218 213 213 217 220 221 222 220 218 217 218 219 220 221 218 212 208 207 207 205 206 209 213 215 214 214 215 214 213 213 211 209 209 208 206 206 206 206 206 206 207 205 204 203 207 210 212 215 216 215 215 216
226 352 0 295 124 113 121 141 176 188 184 188 191 197 213 235 243 236 239 242 221 209 208 189 239 277 320 334 304 294 283 261 240 231 225 216 211 213 218 222 222 220 217 216 217 219 220 220 219 215 209 207 207 207 209 212 214 215 215 214 214 214 213 213 213 213 212 211 211 210 209 209 209 209 209 208 206 206 209 211 213 215 217 218 220 222
177 80 54 88 100 105 90 96 151 177 168 174 179 191 217 236 236 231 230 223 215 215 217 224 258 278 303 335 332 315 298 277 253 244 236 226 218 216 218 222 223 221 218 216 216 218 220 221 220 218 213 209 208 210 213 217 220 219 218 217 215 213 211 210 211 214 215 215 215 215 214 213 211 211 210 209 208 209 211 213 214 216 218 220 225 230
131 99 89 86 87 89 65 51 54 73 158 168 176 192 215 232 233 227 223 218 215 223 234 247 270 276 281 312 333 325 309 288 258 251 245 234 226 223 224 224 222 221 218 217 217 219 221 222 221 220 217 213 212 213 216 219 222 224 222 221 221 219 215 211 209 210 213 217 219 219 219 219 217 216 215 213 211 212 214 213 214 216 218 220 225 230
141 109 103 97 84 76 66 63 65 69 99 127 165 187 205 223 221 210 211 215 208 215 243 260 277 278 278 293 311 307 293 270 246 243 242 236 231 233 234 228 222 219 217 216 216 218 221 223 222 222 221 220 218 217 218 219 220 222 223 222 222 224 224 222 217 211 209 213 218 220 221 222 222 222 220 219 216 216 217 215 214 215 217 219 223 224
204 154 133 143 105 49 55 75 66 60 62 62 103 173 189 204 208 204 209 215 206 212 239 261 281 290 289 282 278 274 257 223 219 233 237 236 236 239 234 227 223 220 218 216 215 216 219 222 224 224 224 224 223 221 221 221 218 217 219 222 223 223 226 229 227 222 215 212 213 217 221 223 224 225 224 224 222 221 222 220 217 217 216 217 220 222
212 191 182 190 181 55 50 106 85 62 47 35 46 71 159 186 194 200 210 215 210 215 235 257 278 292 285 256 248 250 239 215 215 228 231 231 234 234 229 227 227 227 223 218 214 215 218 221 225 226 225 225 226 226 226 222 218 217 219 222 225 226 227 229 230 228 225 219 213 214 219 222 223 224 225 225 225 224 225 224 223 222 220 218 220 222
205 194 195 193 186 173 93 81 131 74 28 14 27 32 352 202 188 193 204 206 205 214 230 251 275 273 229 229 226 217 217 215 219 231 231 226 225 226 230 234 234 234 229 221 214 213 215 220 225 228 228 226 225 229 231 224 219 221 223 222 224 228 230 232 232 231 229 227 221 215 216 220 223 225 225 226 227 226 226 227 227 227 226 224 224 225
186 189 190 190 197 210 222 234 204 275 325 324 333 11 7 296 231 171 182 193 201 212 223 238 253 218 201 210 208 203 210 213 222 233 232 226 224 222 228 236 240 241 237 228 217 211 211 218 224 228 230 228 225 226 228 223 219 222 222 221 223 229 231 233 234 235 233 231 228 221 216 217 222 226 228 229 230 230 229 228 229 230 229 228 226 226
160 176 183 188 201 214 220 222 250 292 306 304 327 13 23 14 13 13 357 340 212 212 214 216 211 196 196 200 201 207 216 221 230 233 226 225 229 230 233 239 244 249 247 239 229 217 215 221 228 231 232 233 230 224 218 214 216 218 218 220 223 227 230 232 233 235 235 234 232 228 221 217 220 226 229 231 231 231 230 229 229 230 230 229 227 226
152 168 178 191 207 214 215 220 244 279 294 299 318 345 5 23 28 11 352 12 45 170 184 172 173 184 194 203 212 219 221 224 240 245 238 234 231 233 240 243 245 254 255 245 235 227 225 228 233 237 238 239 238 233 223 217 219 219 218 219 223 225 228 228 228 228 230 232 233 232 228 222 219 221 224 229 231 230 230 229 229 230 232 232 230 229
190 179 179 192 212 213 207 209 230 249 211 222 284 305 321 344 7 20 25 32 50 83 109 127 149 165 183 209 228 235 228 224 246 255 259 259 253 248 248 248 256 261 253 247 241 237 236 234 235 239 241 241 242 240 233 227 227 225 219 216 220 226 228 226 221 218 221 226 229 231 232 230 226 223 221 223 228 230 229 228 227 228 231 235 236 235
212 185 189 193 195 202 197 196 207 224 195 205 244 266 279 298 322 356 15 9 28 79 96 101 115 138 157 186 238 276 324 328 287 264 272 276 275 269 260 260 293 276 252 242 237 237 239 238 237 239 242 244 245 244 240 235 232 228 222 216 218 225 227 226 222 216 217 223 227 228 231 233 233 232 226 221 223 228 231 231 231 230 229 231 235 239
223 211 219 204 193 202 203 198 205 216 197 202 218 230 239 255 280 317 332 333 333 357 62 79 85 105 114 92 95 252 318 341 328 321 319 297 287 291 288 287 290 276 263 245 232 236 237 237 238 240 243 246 249 248 247 243 235 225 221 220 222 225 226 225 226 223 220 221 224 226 231 235 239 239 235 228 222 223 228 232 234 235 236 233 231 235
227 227 233 226 217 216 204 191 185 224 218 209 208 211 219 228 244 284 306 315 317 324 1 53 63 58 64 67 56 286 319 342 328 332 335 313 302 308 308 297 262 260 260 250 241 245 244 243 242 239 239 243 248 249 246 242 235 225 221 221 225 232 231 225 223 226 223 218 218 224 231 236 240 241 238 233 225 221 226 230 229 232 240 241 234 231
233 233 234 236 234 214 199 186 180 213 228 214 208 209 216 232 256 277 296 312 308 300 316 342 309 285 311 350 312 299 299 277 282 302 306 301 311 329 330 305 252 244 246 240 240 244 243 244 242 237 235 237 242 246 244 239 235 232 228 222 223 231 233 226 220 221 220 215 216 224 230 231 234 238 239 237 229 223 228 233 231 229 234 238 237 234
239 236 230 232 230 210 200 197 209 229 232 212 209 217 229 248 268 275 293 334 330 292 282 277 264 261 271 287 288 282 275 264 265 277 284 290 305 328 341 329 261 243 240 235 243 250 240 208 221 235 237 232 231 236 241 239 235 236 234 224 221 225 229 228 222 217 216 217 217 223 232 234 234 238 240 237 233 229 229 233 235 235 234 235 235 236
238 234 227 226 222 205 200 207 220 232 231 214 212 222 234 247 257 256 254 293 310 297 270 254 252 253 259 270 276 276 275 266 259 264 275 288 300 311 322 325 293 255 238 225 231 246 242 206 202 220 230 228 226 229 235 237 235 235 232 226 225 227 228 229 224 216 220 231 234 237 243 242 239 239 239 239 241 241 238 238 242 244 245 245 245 244
231 226 218 213 207 197 198 206 218 228 233 227 222 226 234 241 245 248 261 278 286 278 250 238 243 246 249 259 266 269 268 263 261 271 282 293 298 302 307 311 288 254 230 210 208 220 225 206 198 209 217 221 223 225 227 230 234 240 240 235 235 237 234 230 226 221 224 234 242 246 247 246 247 251 253 253 253 253 250 248 249 251 252 252 253 253
233 228 213 204 199 193 190 190 201 226 226 225 225 227 230 236 245 259 270 274 267 249 233 227 232 235 238 244 251 258 261 262 267 278 288 292 296 300 305 302 267 231 215 203 199 200 198 186 187 201 212 218 224 225 223 223 228 237 244 242 239 236 234 232 231 231 233 237 241 243 244 245 251 258 260 256 252 251 253 255 255 256 256 257 258 259
235 239 228 207 199 195 191 194 209 227 220 218 225 227 228 233 245 261 266 255 240 236 233 228 227 232 236 239 240 244 250 256 265 274 280 285 292 300 302 286 228 196 192 193 194 195 191 185 186 195 207 215 223 228 225 219 219 221 229 235 231 223 226 231 231 234 239 242 243 245 246 248 250 253 255 253 249 249 254 259 260 258 255 254 255 255
233 236 240 224 214 211 207 207 213 218 213 213 220 226 230 234 239 245 246 238 232 238 243 238 233 234 238 235 223 218 223 233 244 250 257 269 284 290 281 242 192 183 184 185 190 194 195 195 194 197 206 213 220 229 230 222 219 218 222 229 225 216 222 231 231 232 239 244 245 245 247 248 250 252 254 255 256 257 260 263 264 256 244 240 240 239
255 248 245 239 225 219 220 219 213 209 207 207 213 224 234 240 240 236 231 231 236 245 251 246 235 230 226 211 191 185 186 188 198 216 229 247 264 245 206 170 158 164 170 173 181 190 195 201 202 201 207 213 220 232 236 230 224 222 223 229 230 219 212 219 223 226 232 238 242 244 244 248 252 254 253 253 255 257 255 253 253 249 243 240 238 237
273 262 248 241 230 220 223 225 217 207 204 205 213 228 237 242 240 232 228 232 239 245 247 241 226 210 198 185 176 174 175 178 186 198 206 204 192 177 158 145 140 145 153 158 167 177 183 190 196 197 200 203 207 222 235 238 232 219 214 223 228 217 203 207 217 223 226 230 236 240 243 245 249 250 246 240 239 241 239 237 240 242 243 244 241 237
277 262 250 242 233 229 240 244 232 222 217 213 213 214 217 220 218 214 222 233 237 236 232 221 204 191 182 177 176 178 179 180 182 186 187 183 171 154 143 134 129 131 135 139 143 151 154 157 164 171 175 173 167 172 191 205 199 177 176 188 193 186 185 194 205 213 217 220 225 231 235 238 241 241 237 230 227 229 228 228 231 233 233 232 228 224
304 250 241 243 229 232 252 256 237 227 219 203 192 187 188 198 205 204 209 218 222 220 210 197 189 182 173 169 172 177 183 191 195 189 179 174 171 159 144 133 127 127 129 129 129 132 135 138 144 149 151 150 145 139 142 147 147 148 154 160 163 166 174 184 194 202 207 211 216 219 221 222 225 228 229 223 216 214 215 217 220 220 217 213 209 207
86 104 112 75 65 253 256 237 218 210 197 180 176 181 187 191 198 199 194 193 193 190 185 187 190 184 172 165 165 167 173 193 205 196 177 166 166 160 147 137 133 132 130 129 130 129 129 130 132 133 134 133 131 130 131 134 138 142 146 150 156 166 177 185 192 197 199 203 208 209 209 210 209 209 213 213 210 211 216 219 219 218 215 212 209 208
126 105 85 67 54 28 246 211 202 193 179 173 180 191 194 194 199 193 181 183 189 183 175 181 192 188 177 167 163 159 156 169 192 190 175 165 165 159 150 145 143 139 134 134 134 131 128 127 127 128 131 130 129 131 132 135 138 139 142 146 149 157 170 185 195 202 203 205 208 208 208 211 211 211 216 222 225 227 227 226 226 227 226 225 223 221
Height
3151 3152 3152 3153 3155 3156 3158 3159 3160 3162 3162 3163 3164 3164 3165 3165 3166 3167 3168 3169 3169 3169 3171 3172 3172 3174 3176 3177 3178 3178 3179 3180 3182 3184 3186 3187 3188 3189 3191 3192 3194 3196 3196 3197 3198 3199 3199 3200 3201 3202 3203 3205 3206 3207 3207 3208 3209 3209 3209 3210 3210 3211 3211 3212 3213 3214 3215 3216 3217 3219 3220 3221 3222 3224 3224 3225 3226 3227 3229 3230 3231 3232 3234 3235 3235 3236
3150 3151 3152 3154 3156 3157 3159 3159 3160 3161 3162 3162 3163 3164 3164 3164 3165 3167 3168 3168 3168 3169 3172 3172 3172 3174 3175 3176 3177 3178 3179 3180 3182 3184 3185 3186 3188 3189 3191 3192 3194 3195 3195 3196 3197 3198 3199 3200 3201 3202 3204 3205 3206 3207 3208 3209 3209 3210 3210 3210 3211 3212 3212 3213 3214 3215 3216 3217 3218 3219 3221 3222 3223 3224 3225 3226 3227 3228 3229 3231 3232 3233 3234 3235 3236 3237
3149 3149 3151 3155 3156 3157 3158 3159 3160 3161 3162 3162 3163 3163 3164 3164 3165 3166 3167 3168 3168 3169 3171 3172 3172 3173 3174 3176 3178 3178 3179 3180 3182 3184 3185 3186 3188 3189 3190 3192 3193 3194 3194 3195 3197 3198 3199 3200 3201 3202 3204 3205 3206 3207 3208 3209 3210 3210 3211 3211 3211 3212 3213 3214 3215 3216 3216 3217 3218 3220 3221 3222 3223 3224 3225 3226 3227 3229 3230 3231 3233 3234 3235 3236 3237 3237
3148 3149 3152 3155 3156 3157 3158 3159 3159 3160 3161 3161 3162 3163 3163 3163 3164 3166 3166 3167 3168 3169 3170 3171 3172 3173 3174 3176 3177 3178 3179 3180 3182 3183 3184 3185 3187 3189 3191 3191 3192 3193 3194 3195 3196 3197 3199 3200 3201 3202 3204 3205 3206 3207 3208 3209 3210 3211 3211 3212 3212 3213 3214 3214 3215 3216 3217 3218 3219 3220 3221 3222 3223 3224 3225 3227 3228 3229 3231 3232 3233 3234 3235 3236 3237 3238
3148 3150 3152 3154 3155 3156 3157 3158 3159 3159 3160 3160 3161 3162 3163 3163 3164 3165 3167 3167 3167 3168 3168 3170 3172 3173 3173 3174 3175 3176 3178 3179 3180 3182 3183 3184 3185 3188 3190 3191 3192 3193 3194 3195 3196 3197 3199 3200 3202 3203 3204 3205 3206 3207 3209 3210 3210 3211 3212 3213 3213 3213 3214 3215 3216 3217 3217 3218 3219 3221 3222 3223 3224 3225 3226 3227 3229 3230 3231 3232 3233 3234 3235 3237 3238 3239
3148 3150 3152 3153 3155 3155 3156 3157 3158 3159 3159 3160 3160 3161 3163 3163 3164 3165 3166 3167 3167 3167 3167 3169 3171 3171 3171 3173 3174 3175 3176 3177 3179 3180 3181 3182 3184 3186 3188 3189 3191 3192 3194 3195 3196 3198 3199 3200 3202 3203 3203 3205 3206 3207 3209 3210 3210 3211 3212 3213 3214 3214 3214 3215 3216 3217 3218 3219 3220 3221 3223 3224 3225 3226 3227 3228 3229 3231 3232 3233 3234 3235 3236 3237 3238 3239
3147 3150 3151 3152 3153 3154 3155 3156 3157 3158 3159 3159 3159 3161 3163 3163 3163 3164 3165 3167 3167 3166 3167 3168 3170 3170 3170 3170 3172 3173 3173 3175 3177 3177 3179 3181 3182 3184 3186 3188 3189 3191 3193 3194 3196 3197 3199 3200 3201 3202 3203 3205 3206 3207 3208 3209 3210 3211 3212 3213 3214 3214 3215 3216 3217 3218 3219 3220 3221 3222 3223 3225 3226 3226 3227 3228 3229 3231 3232 3233 3235 3236 3237 3238 3239 3240
3147 3149 3151 3151 3152 3153 3154 3155 3157 3158 3159 3159 3159 3161 3162 3162 3163 3164 3165 3166 3166 3166 3167 3168 3169 3170 3168 3167 3170 3171 3171 3172 3174 3175 3177 3178 3180 3182 3184 3186 3188 3190 3192 3194 3195 3197 3198 3200 3201 3202 3204 3205 3206 3207 3208 3209 3210 3211 3212 3213 3214 3215 3215 3216 3217 3218 3219 3220 3221 3223 3224 3225 3225 3226 3227 3228 3230 3231 3233 3234 3235 3236 3237 3239 3240 3241
3147 3149 3150 3151 3152 3152 3152 3154 3156 3157 3158 3158 3158 3160 3161 3162 3163 3163 3165 3165 3165 3167 3167 3168 3169 3170 3167 3165 3168 3169 3168 3169 3169 3171 3174 3176 3178 3180 3183 3185 3187 3189 3191 3193 3195 3196 3198 3199 3201 3202 3204 3205 3206 3207 3208 3209 3210 3211 3212 3213 3214 3215 3216 3216 3217 3219 3220 3221 3222 3223 3224 3224 3225 3226 3227 3228 3229 3231 3232 3234 3235 3237 3238 3239 3241 3241
3146 3148 3149 3149 3150 3150 3152 3154 3155 3156 3157 3156 3158 3160 3161 3161 3162 3163 3165 3165 3166 3166 3166 3167 3168 3168 3166 3163 3165 3166 3164 3164 3166 3169 3171 3174 3176 3179 3181 3183 3185 3188 3190 3192 3194 3196 3198 3199 3200 3202 3203 3204 3205 3207 3208 3209 3210 3211 3212 3213 3214 3215 3216 3217 3218 3219 3220 3221 3222 3223 3224 3224 3225 3226 3227 3228 3229 3231 3232 3234 3235 3237 3238 3239 3240 3241
3145 3146 3147 3147 3147 3149 3152 3153 3153 3154 3155 3156 3158 3159 3160 3161 3162 3164 3165 3166 3167 3165 3164 3166 3166 3167 3165 3161 3161 3161 3159 3161 3164 3167 3169 3171 3174 3177 3179 3181 3184 3186 3188 3191 3193 3195 3197 3198 3200 3201 3202 3203 3205 3206 3207 3208 3209 3210 3212 3213 3214 3215 3216 3217 3218 3219 3220 3221 3222 3223 3224 3224 3225 3226 3227 3228 3229 3231 3232 3233 3235 3236 3237 3238 3239 3241
3144 3144 3144 3145 3147 3149 3150 3151 3150 3152 3154 3156 3158 3158 3160 3162 3163 3165 3165 3167 3168 3165 3163 3164 3165 3167 3165 3159 3157 3158 3158 3162 3164 3164 3166 3169 3171 3174 3177 3179 3182 3185 3187 3190 3192 3193 3195 3197 3198 3200 3201 3202 3204 3205 3207 3208 3209 3210 3212 3213 3214 3215 3216 3217 3218 3219 3220 3221 3223 3224 3224 3225 3225 3226 3227 3228 3229 3231 3232 3233 3235 3236 3237 3238 3239 3241
3142 3142 3143 3144 3146 3147 3148 3149 3149 3151 3154 3156 3157 3157 3159 3163 3165 3166 3166 3166 3166 3163 3162 3163 3164 3165 3162 3156 3156 3157 3158 3160 3161 3162 3165 3167 3170 3173 3175 3177 3180 3183 3186 3188 3190 3192 3194 3196 3197 3199 3200 3202 3203 3205 3206 3207 3209 3210 3211 3213 3214 3215 3216 3217 3218 3219 3220 3221 3223 3224 3225 3225 3226 3227 3227 3228 3229 3230 3232 3233 3235 3236 3237 3239 3240 3241
3140 3141 3142 3143 3144 3144 3145 3146 3147 3150 3153 3154 3155 3155 3157 3161 3166 3168 3167 3165 3163 3160 3160 3162 3164 3163 3158 3154 3155 3155 3155 3156 3158 3161 3164 3166 3169 3172 3174 3176 3178 3181 3184 3187 3189 3191 3192 3195 3197 3198 3200 3201 3203 3204 3206 3207 3208 3210 3211 3213 3214 3215 3216 3217 3218 3219 3220 3221 3222 3223 3224 3225 3226 3227 3228 3228 3229 3230 3232 3233 3235 3236 3237 3238 3239 3240
3140 3140 3140 3141 3142 3142 3143 3144 3147 3150 3152 3152 3152 3153 3154 3157 3160 3162 3162 3161 3160 3159 3160 3162 3162 3158 3155 3153 3153 3152 3153 3154 3155 3158 3162 3164 3168 3170 3173 3174 3176 3179 3182 3185 3187 3189 3191 3194 3196 3197 3199 3201 3203 3204 3205 3206 3208 3209 3211 3212 3214 3215 3216 3217 3218 3219 3220 3221 3222 3223 3224 3225 3226 3227 3228 3229 3229 3231 3232 3233 3234 3236 3237 3238 3239 3240
3140 3139 3139 3140 3141 3141 3142 3144 3147 3149 3150 3150 3151 3152 3153 3154 3156 3157 3158 3157 3157 3159 3159 3159 3157 3153 3152 3152 3152 3151 3152 3152 3153 3156 3158 3161 3165 3168 3170 3172 3174 3177 3180 3183 3185 3188 3190 3192 3194 3196 3198 3200 3202 3203 3204 3206 3207 3209 3210 3212 3213 3214 3216 3217 3218 3219 3220 3220 3221 3223 3224 3225 3226 3227 3228 3229 3230 3231 3232 3233 3234 3235 3236 3237 3238 3239
3139 3138 3138 3138 3138 3139 3140 3142 3144 3146 3147 3148 3149 3150 3152 3154 3155 3156 3158 3157 3157 3159 3158 3156 3153 3151 3151 3151 3150 3151 3150 3151 3152 3153 3155 3159 3162 3164 3166 3168 3171 3174 3177 3180 3183 3186 3189 3191 3193 3195 3197 3199 3201 3202 3204 3205 3207 3208 3210 3211 3213 3214 3215 3216 3217 3218 3219 3220 3221 3222 3224 3225 3226 3227 3228 3229 3230 3231 3232 3233 3234 3235 3236 3237 3238 3239
3139 3138 3137 3137 3136 3137 3139 3141 3143 3145 3146 3147 3148 3149 3151 3153 3154 3156 3160 3160 3158 3159 3156 3153 3151 3150 3150 3149 3148 3149 3149 3150 3151 3151 3153 3156 3158 3161 3163 3165 3169 3172 3175 3179 3181 3184 3187 3189 3192 3194 3196 3198 3200 3202 3203 3205 3206 3208 3209 3210 3212 3213 3215 3216 3217 3218 3219 3220 3221 3222 3223 3225 3226 3227 3228 3229 3230 3231 3232 3233 3234 3235 3236 3237 3237 3238
3139 3138 3138 3137 3135 3135 3137 3140 3142 3144 3145 3146 3148 3149 3150 3152 3153 3155 3160 3160 3157 3157 3155 3151 3150 3149 3148 3147 3146 3147 3148 3148 3149 3150 3151 3153 3155 3157 3160 3163 3166 3170 3173 3176 3179 3182 3185 3188 3190 3192 3195 3197 3199 3201 3203 3204 3205 3207 3208 3209 3211 3213 3214 3215 3216 3217 3218 3219 3220 3221 3223 3224 3225 3227 3228 3229 3230 3231 3232 3233 3234 3235 3236 3237 3237 3238
3138 3138 3138 3137 3136 3135 3136 3139 3141 3143 3145 3147 3148 3149 3149 3151 3152 3153 3155 3154 3152 3154 3154 3151 3149 3147 3145 3145 3145 3146 3146 3147 3148 3149 3150 3151 3153 3155 3157 3160 3163 3166 3170 3173 3177 3180 3183 3186 3189 3191 3193 3196 3198 3200 3202 3203 3204 3206 3207 3208 3210 3211 3212 3214 3215 3216 3217 3218 3219 3220 3222 3223 3224 3226 3227 3228 3229 3231 3232 3233 3234 3235 3235 3236 3237 3238
3138 3138 3137 3136 3136 3137 3137 3138 3141 3143 3145 3146 3147 3148 3148 3150 3151 3151 3152 3150 3150 3151 3152 3151 3149 3145 3144 3145 3145 3145 3145 3146 3147 3148 3149 3151 3152 3154 3156 3158 3161 3164 3167 3171 3175 3178 3182 3184 3187 3189 3192 3195 3197 3199 3200 3202 3203 3205 3206 3207 3209 3210 3212 3213 3214 3215 3217 3218 3219 3220 3221 3222 3223 3225 3226 3227 3228 3230 3231 3232 3233 3234 3234 3235 3237 3238
3137 3138 3138 3137 3138 3138 3138 3139 3142 3144 3145 3146 3146 3147 3148 3148 3149 3149 3149 3149 3149 3149 3149 3149 3147 3144 3144 3144 3144 3144 3145 3145 3146 3147 3148 3150 3152 3153 3155 3157 3160 3162 3165 3169 3173 3177 3180 3182 3185 3188 3190 3193 3195 3197 3199 3200 3202 3203 3205 3207 3208 3210 3211 3212 3214 3215 3216 3217 3218 3219 3220 3221 3223 3224 3225 3226 3227 3229 3230 3231 3232 3233 3234 3235 3236 3237
3137 3138 3140 3141 3140 3139 3138 3140 3142 3143 3145 3146 3146 3146 3147 3147 3148 3148 3147 3147 3148 3148 3147 3147 3146 3144 3143 3144 3144 3144 3144 3144 3145 3146 3147 3148 3150 3152 3154 3156 3158 3160 3164 3168 3171 3175 3178 3181 3184 3186 3188 3191 3193 3195 3197 3199 3200 3202 3204 3206 3207 3209 3211 3212 3213 3214 3215 3216 3217 3219 3220 3221 3222 3223 3224 3225 3226 3228 3229 3230 3231 3232 3233 3234 3235 3236
3136 3137 3140 3141 3140 3139 3138 3140 3142 3142 3143 3145 3144 3145 3146 3146 3146 3146 3146 3146 3146 3146 3146 3147 3146 3143 3143 3144 3144 3144 3144 3144 3145 3145 3146 3147 3148 3150 3153 3154 3156 3158 3162 3165 3169 3172 3175 3178 3182 3184 3186 3189 3191 3194 3196 3197 3199 3201 3203 3204 3206 3208 3210 3211 3212 3214 3215 3216 3217 3218 3219 3220 3221 3222 3223 3225 3226 3227 3228 3229 3229 3230 3232 3233 3234 3235
3136 3137 3139 3140 3140 3139 3139 3140 3142 3142 3142 3142 3142 3143 3144 3144 3145 3145 3145 3146 3145 3145 3146 3146 3145 3143 3143 3144 3144 3144 3144 3144 3145 3145 3146 3146 3147 3149 3151 3152 3154 3156 3159 3163 3166 3169 3172 3176 3179 3182 3184 3187 3190 3192 3194 3196 3197 3199 3201 3203 3205 3207 3208 3210 3211 3213 3214 3215 3216 3217 3218 3219 3220 3222 3223 3224 3225 3226 3227 3228 3228 3230 3231 3232 3232 3233
3137 3138 3139 3139 3139 3140 3141 3142 3143 3142 3141 3140 3140 3141 3142 3143 3143 3143 3144 3144 3144 3144 3145 3145 3144 3143 3143 3144 3144 3144 3144 3144 3144 3145 3145 3146 3146 3148 3149 3151 3152 3155 3157 3160 3163 3167 3170 3173 3177 3180 3182 3185 3188 3190 3193 3195 3197 3198 3200 3202 3203 3205 3206 3207 3209 3211 3213 3214 3216 3217 3218 3219 3220 3221 3222 3223 3224 3225 3226 3227 3228 3229 3230 3231 3231 3232
3137 3138 3139 3140 3140 3140 3141 3142 3142 3141 3140 3140 3140 3140 3141 3141 3141 3142 3143 3143 3143 3143 3143 3143 3143 3143 3143 3144 3144 3144 3144 3144 3144 3144 3144 3145 3146 3147 3147 3149 3150 3152 3155 3158 3161 3165 3168 3171 3174 3178 3180 3183 3186 3188 3191 3193 3195 3197 3199 3201 3203 3204 3205 3206 3206 3208 3210 3212 3214 3216 3217 3219 3220 3221 3221 3222 3223 3224 3225 3225 3227 3227 3228 3229 3230 3231
3137 3137 3139 3140 3141 3141 3141 3141 3141 3141 3141 3140 3140 3140 3139 3140 3140 3141 3142 3142 3142 3142 3142 3142 3142 3142 3143 3144 3144 3143 3143 3143 3143 3144 3144 3144 3145 3146 3146 3147 3148 3150 3152 3155 3159 3162 3166 3169 3172 3175 3178 3181 3184 3186 3189 3191 3194 3196 3198 3199 3201 3204 3205 3206 3206 3207 3207 3209 3212 3214 3216 3218 3219 3220 3221 3222 3222 3223 3224 3224 3225 3226 3227 3228 3229 3229
3136 3137 3139 3141 3142 3142 3142 3142 3142 3142 3141 3141 3140 3139 3139 3139 3140 3140 3141 3141 3141 3141 3141 3141 3142 3142 3143 3143 3143 3143 3143 3143 3143 3143 3143 3144 3144 3145 3145 3145 3147 3148 3150 3153 3156 3160 3164 3167 3170 3173 3176 3179 3182 3184 3186 3189 3191 3194 3196 3198 3200 3202 3203 3205 3207 3207 3207 3206 3208 3211 3214 3216 3217 3219 3220 3220 3221 3222 3223 3223 3224 3225 3225 3226 3227 3228
3136 3137 3138 3140 3141 3142 3143 3144 3143 3143 3142 3141 3140 3140 3139 3139 3139 3140 3140 3140 3141 3141 3141 3141 3141 3141 3142 3142 3142 3143 3143 3142 3143 3143 3143 3144 3144 3144 3144 3145 3146 3147 3149 3151 3155 3159 3162 3165 3167 3170 3173 3176 3179 3182 3183 3185 3188 3191 3193 3196 3198 3199 3201 3203 3204 3206 3206 3206 3206 3208 3210 3213 3215 3217 3218 3219 3220 3221 3222 3223 3223 3224 3224 3225 3226 3227
3136 3137 3138 3138 3141 3143 3144 3144 3144 3143 3143 3142 3141 3141 3140 3139 3139 3139 3139 3139 3140 3140 3140 3140 3140 3141 3142 3142 3142 3142 3142 3143 3143 3143 3143 3144 3144 3144 3145 3145 3146 3147 3148 3149 3152 3156 3160 3163 3165 3168 3170 3173 3176 3178 3180 3182 3185 3188 3190 3192 3195 3197 3198 3200 3202 3204 3205 3206 3206 3206 3207 3209 3212 3214 3216 3217 3218 3219 3221 3222 3222 3223 3224 3224 3225 3225
3137 3137 3138 3139 3141 3143 3144 3144 3144 3144 3143 3143 3142 3141 3140 3139 3138 3138 3138 3138 3139 3139 3139 3139 3140 3140 3141 3141 3141 3142 3142 3143 3143 3143 3144 3144 3144 3145 3145 3146 3146 3147 3148 3149 3152 3154 3158 3160 3163 3165 3167 3170 3172 3175 3177 3179 3182 3185 3187 3189 3192 3194 3196 3197 3200 3201 3203 3205 3206 3205 3205 3206 3209 3211 3213 3215 3216 3218 3219 3220 3221 3221 3222 3223 3223 3224
3138 3138 3138 3139 3140 3142 3143 3144 3144 3143 3143 3143 3142 3141 3140 3140 3139 3139 3138 3138 3138 3138 3138 3139 3139 3140 3141 3141 3141 3142 3143 3143 3144 3144 3144 3144 3144 3145 3146 3147 3148 3148 3149 3151 3152 3154 3157 3159 3160 3162 3165 3168 3171 3172 3174 3177 3180 3182 3184 3186 3189 3191 3193 3194 3197 3199 3201 3203 3204 3205 3205 3204 3206 3208 3211 3212 3214 3215 3217 3217 3218 3219 3220 3221 3221 3222
3139 3139 3139 3139 3139 3140 3141 3143 3143 3143 3143 3143 3142 3142 3141 3140 3140 3140 3139 3139 3138 3138 3138 3139 3139 3140 3141 3141 3142 3143 3143 3144 3145 3145 3145 3145 3145 3146 3146 3147 3149 3150 3150 3151 3152 3154 3156 3158 3159 3161 3163 3166 3168 3170 3172 3176 3178 3179 3181 3183 3185 3188 3189 3191 3194 3196 3198 3200 3202 3204 3204 3203 3203 3205 3207 3209 3211 3212 3214 3215 3216 3217 3218 3219 3219 3220
3139 3139 3139 3138 3138 3138 3139 3142 3143 3142 3142 3142 3142 3142 3141 3141 3141 3141 3141 3140 3139 3139 3139 3139 3140 3140 3141 3142 3143 3144 3145 3146 3146 3147 3147 3147 3147 3147 3147 3148 3151 3152 3150 3151 3153 3155 3157 3158 3159 3161 3162 3163 3165 3167 3171 3174 3175 3176 3178 3179 3182 3184 3187 3189 3191 3193 3195 3197 3199 3201 3203 3203 3203 3203 3203 3204 3207 3209 3210 3212 3213 3214 3215 3216 3217 3218
3138 3138 3138 3138 3138 3138 3138 3140 3141 3140 3140 3141 3141 3141 3142 3141 3141 3142 3142 3141 3141 3140 3140 3141 3141 3141 3142 3143 3144 3146 3147 3147 3147 3147 3147 3147 3148 3148 3149 3150 3153 3152 3150 3151 3154 3156 3156 3156 3157 3159 3160 3161 3162 3164 3167 3170 3172 3174 3175 3176 3178 3182 3184 3187 3189 3191 3192 3194 3196 3198 3200 3201 3202 3202 3202 3202 3204 3206 3208 3210 3211 3212 3213 3214 3214 3215
3137 3138 3138 3137 3137 3138 3138 3138 3139 3139 3140 3140 3140 3141 3141 3141 3142 3142 3142 3142 3141 3141 3142 3142 3142 3142 3143 3143 3145 3146 3146 3146 3147 3147 3147 3147 3147 3147 3149 3151 3153 3151 3150 3152 3153 3153 3153 3154 3156 3157 3158 3159 3159 3161 3163 3165 3167 3170 3172 3173 3176 3179 3181 3183 3186 3189 3190 3191 3193 3195 3197 3198 3200 3202 3203 3201 3201 3203 3205 3207 3209 3210 3211 3212 3211 3212
3136 3137 3137 3137 3137 3137 3138 3138 3139 3140 3139 3138 3139 3140 3141 3141 3141 3142 3142 3142 3142 3142 3142 3143 3143 3143 3143 3143 3144 3145 3146 3146 3146 3147 3147 3147 3147 3147 3148 3150 3151 3150 3150 3151 3152 3151 3152 3154 3155 3155 3156 3156 3157 3157 3158 3160 3163 3166 3168 3171 3174 3176 3178 3179 3183 3186 3187 3187 3189 3191 3193 3194 3197 3199 3200 3199 3198 3199 3202 3204 3205 3207 3209 3210 3209 3208
3135 3135 3136 3136 3136 3137 3137 3138 3138 3139 3138 3138 3139 3139 3140 3141 3141 3142 3142 3141 3141 3142 3142 3142 3143 3143 3143 3143 3144 3145 3145 3146 3146 3146 3145 3146 3146 3147 3147 3149 3150 3149 3149 3150 3150 3150 3151 3153 3152 3152 3153 3154 3155 3155 3156 3159 3162 3163 3164 3166 3169 3172 3175 3176 3180 3183 3184 3183 3185 3188 3190 3192 3195 3196 3197 3197 3196 3194 3197 3200 3202 3203 3204 3205 3205 3206
3134 3134 3135 3135 3135 3136 3137 3137 3138 3138 3138 3138 3139 3139 3140 3141 3141 3142 3142 3142 3141 3141 3141 3141 3141 3142 3142 3143 3143 3144 3145 3145 3145 3145 3145 3145 3145 3146 3146 3147 3149 3149 3148 3149 3149 3149 3151 3151 3151 3150 3151 3153 3153 3153 3155 3158 3160 3161 3162 3163 3166 3169 3172 3174 3177 3179 3180 3180 3182 3186 3189 3190 3193 3194 3195 3195 3192 3190 3192 3196 3198 3198 3198 3200 3202 3203
3132 3133 3133 3134 3135 3135 3136 3137 3137 3138 3138 3138 3139 3139 3140 3141 3141 3142 3142 3142 3141 3141 3141 3141 3141 3141 3142 3142 3143 3144 3144 3145 3144 3144 3144 3144 3145 3145 3145 3146 3147 3148 3148 3148 3149 3149 3150 3150 3150 3150 3151 3152 3152 3153 3154 3156 3158 3159 3160 3162 3165 3167 3169 3172 3175 3176 3178 3179 3182 3185 3187 3188 3190 3191 3191 3191 3190 3190 3192 3194 3195 3196 3197 3199 3200 3200
3131 3131 3132 3133 3134 3135 3136 3136 3137 3137 3137 3138 3138 3139 3140 3140 3141 3141 3141 3141 3141 3141 3141 3140 3141 3141 3142 3142 3143 3143 3144 3144 3144 3144 3144 3144 3144 3144 3145 3145 3146 3147 3147 3147 3148 3148 3149 3150 3150 3149 3150 3151 3152 3153 3154 3155 3156 3158 3161 3163 3165 3167 3168 3170 3173 3175 3177 3179 3181 3183 3184 3185 3185 3185 3186 3187 3188 3188 3189 3191 3191 3192 3194 3195 3195 3196
3130 3131 3131 3131 3132 3133 3135 3136 3136 3136 3136 3137 3138 3138 3139 3139 3140 3140 3140 3140 3140 3140 3140 3140 3140 3141 3141 3142 3142 3143 3143 3143 3144 3144 3144 3143 3143 3144 3145 3145 3146 3146 3146 3147 3147 3148 3148 3149 3149 3149 3149 3150 3151 3153 3155 3156 3157 3159 3160 3162 3164 3166 3167 3168 3170 3172 3175 3177 3179 3179 3180 3181 3181 3180 3181 3183 3185 3186 3187 3187 3188 3189 3190 3190 3191 3192
3130 3130 3130 3131 3131 3132 3133 3133 3134 3134 3135 3136 3137 3137 3138 3139 3139 3139 3139 3139 3139 3139 3139 3138 3139 3139 3140 3141 3141 3142 3142 3143 3143 3143 3143 3143 3143 3143 3144 3145 3145 3146 3146 3146 3147 3148 3148 3148 3149 3149 3149 3149 3150 3152 3154 3156 3157 3158 3159 3159 3162 3164 3165 3166 3169 3171 3172 3174 3175 3176 3176 3176 3176 3176 3177 3179 3182 3184 3185 3184 3184 3185 3186 3186 3187 3188
3129 3129 3130 3130 3130 3131 3131 3132 3133 3134 3135 3135 3136 3137 3137 3138 3138 3138 3138 3138 3138 3138 3138 3137 3138 3138 3139 3139 3140 3140 3141 3142 3142 3142 3142 3142 3142 3143 3144 3144 3145 3145 3146 3146 3146 3147 3148 3148 3149 3149 3149 3149 3150 3150 3152 3154 3156 3157 3158 3158 3160 3162 3164 3166 3168 3170 3171 3171 3172 3174 3174 3173 3173 3174 3175 3176 3178 3180 3181 3180 3180 3181 3182 3182 3183 3183
3129 3129 3129 3129 3130 3130 3131 3131 3132 3133 3133 3134 3135 3136 3137 3137 3137 3137 3137 3137 3137 3137 3137 3137 3137 3137 3138 3138 3139 3140 3140 3141 3141 3141 3142 3142 3143 3143 3144 3144 3145 3145 3146 3146 3147 3147 3147 3148 3148 3149 3149 3149 3150 3150 3151 3152 3154 3155 3156 3158 3159 3161 3163 3164 3166 3167 3168 3168 3169 3171 3172 3171 3171 3172 3173 3174 3176 3177 3177 3178 3177 3178 3179 3179 3179 3179
3128 3128 3129 3129 3129 3130 3130 3130 3131 3132 3133 3134 3134 3135 3136 3136 3137 3137 3137 3137 3136 3136 3136 3136 3136 3136 3137 3137 3138 3139 3140 3141 3141 3141 3142 3143 3143 3143 3144 3144 3144 3145 3146 3146 3147 3147 3147 3148 3148 3148 3149 3149 3149 3150 3151 3152 3153 3154 3155 3156 3158 3160 3161 3162 3163 3164 3165 3165 3166 3168 3169 3169 3169 3169 3170 3171 3173 3174 3175 3175 3176 3176 3176 3176 3177 3177
3128 3128 3128 3128 3129 3129 3130 3130 3131 3131 3132 3133 3134 3135 3135 3136 3136 3136 3136 3136 3136 3136 3135 3135 3135 3136 3136 3137 3138 3139 3140 3140 3140 3141 3142 3143 3143 3143 3144 3145 3145 3146 3146 3147 3147 3148 3148 3148 3148 3149 3149 3149 3150 3150 3151 3152 3153 3154 3155 3156 3157 3158 3159 3161 3162 3162 3163 3164 3165 3166 3166 3167 3167 3168 3169 3170 3171 3172 3173 3173 3174 3174 3175 3175 3175 3176
3127 3127 3128 3128 3128 3129 3129 3129 3130 3131 3132 3133 3134 3134 3135 3135 3136 3136 3135 3135 3135 3135 3135 3135 3135 3135 3136 3137 3138 3139 3140 3140 3140 3141 3142 3143 3143 3144 3144 3145 3146 3146 3147 3147 3148 3148 3149 3149 3149 3150 3150 3150 3151 3151 3152 3152 3153 3154 3155 3156 3157 3158 3159 3160 3161 3162 3162 3163 3163 3164 3164 3165 3166 3167 3168 3169 3170 3171 3172 3172 3173 3173 3174 3174 3174 3175
3128 3127 3128 3128 3128 3128 3128 3129 3129 3130 3131 3132 3133 3134 3134 3135 3135 3136 3135 3135 3135 3135 3135 3136 3136 3136 3136 3137 3137 3139 3139 3140 3141 3141 3142 3143 3144 3144 3145 3145 3146 3147 3147 3148 3148 3149 3150 3150 3150 3151 3151 3151 3152 3152 3153 3153 3154 3154 3155 3155 3156 3158 3159 3160 3160 3161 3162 3162 3163 3163 3164 3164 3165 3166 3167 3168 3169 3170 3171 3171 3172 3172 3173 3173 3173 3174
3128 3128 3128 3128 3128 3128 3128 3128 3129 3130 3131 3132 3132 3133 3134 3134 3135 3135 3135 3135 3136 3136 3136 3136 3137 3137 3137 3137 3138 3138 3139 3140 3141 3141 3142 3143 3144 3145 3145 3146 3146 3147 3148 3148 3149 3150 3151 3151 3151 3152 3152 3153 3153 3154 3154 3155 3155 3155 3155 3156 3156 3157 3158 3159 3160 3160 3161 3162 3162 3163 3163 3164 3165 3165 3166 3167 3168 3169 3170 3170 3170 3171 3172 3172 3172 3173